ONEWEB-0037 (45440 NORAD) Tracking and Keplerian Element Data

This shows tracking and keplerian element data for the satellite.

Feedback or suggestion? Click here.




ElementValue
Catalog45440
NameONEWEB-0037
Epoch Orbit1633
Epoch Day190.25001157
Epoch Year2020
RAAN103.4777
Inclination87.5696
Eccentricity0.0021582
Argument of Perigee258.9614
Mean Anonmoly158.4831
Mean Motion14.90169282
Decay Rate0.00014915
L11 45440U 20020S 20190.25001157 .00014915 00000-0 15300-2 0 9995
L22 45440 87.5696 103.4777 0021582 258.9614 158.4831 14.90169282 16337

Live tracking and technical data element details for ONEWEB-0037 (NORAD 45440). ONEWEB-0037 can be tracked NOW for your location showing map with azimuth and elevation plus other details from your city location.

Track the satellite on the map from your city or location and see movement details for azimuth, elevation, latitude, longitude, range, height, and movement on the map or in text.







IsCatalogInMostPopularTable: catalog: 45440, numindb: 25
Update: records affected: 1



GetName: 45440 ONEWEB-0037

Hit Count: updated at: Thu, 09 Jul 2020 01:40:36 GMT